Theta_e
310 310 313 315 314 311 311 311 311 316 316 315 317 314 313 312 310 310 310 310 308 311 316 312 310 312 309 308 309 309 310 310 311 310 309 310 309 309 309 309 308 308 308 305 303 304 304 304 304 303 302 301 301 303 303 304 305 305 305 306 307 308 308 308 308 308 307 307 307 306 306 306 306 306 306 306 306 305 305 305 305 305 305 304 302 302
307 308 315 316 314 311 311 313 314 314 315 315 313 312 314 312 312 310 307 313 314 312 316 315 314 315 311 311 311 310 312 312 312 312 311 311 310 309 309 309 310 309 308 307 305 303 302 303 303 302 301 300 301 303 303 304 305 305 306 306 307 308 308 308 308 308 307 307 307 306 306 306 306 306 306 306 306 305 305 305 305 304 305 304 302 302
309 312 316 311 309 311 313 314 315 314 315 317 314 313 316 314 315 313 308 314 316 312 318 319 315 314 312 311 311 311 311 311 311 311 312 312 311 311 311 311 311 311 311 311 310 305 300 301 302 301 300 300 302 303 304 304 305 305 305 306 307 307 308 308 308 308 307 307 307 306 305 305 306 306 306 306 305 305 305 305 305 304 304 304 303 302
313 318 314 307 308 314 315 313 314 314 314 318 315 314 318 315 313 313 312 315 315 311 316 319 315 313 312 312 316 315 310 312 316 314 313 311 311 312 311 311 311 313 315 316 317 311 302 300 300 299 300 300 302 303 304 304 304 305 305 306 307 307 308 308 308 307 307 307 307 306 305 305 305 305 306 306 305 305 305 305 305 304 304 304 303 302
315 315 307 307 310 313 315 313 313 313 316 321 318 315 319 314 310 313 313 314 317 314 312 316 317 320 322 322 328 324 312 314 318 317 317 315 311 309 310 313 311 311 314 317 321 318 310 305 300 299 300 300 302 303 304 305 305 306 306 306 307 307 308 308 308 307 307 307 307 306 305 305 305 305 305 305 305 305 305 305 305 304 304 304 303 302
316 308 304 312 313 312 315 315 316 315 317 322 318 314 314 310 310 316 317 317 323 322 313 313 318 326 331 326 325 323 315 316 315 313 317 320 321 319 322 328 321 314 313 314 317 316 312 305 298 298 300 300 301 303 304 305 305 306 306 307 307 307 308 308 308 307 307 307 306 305 305 305 305 304 305 305 305 305 305 305 305 304 304 303 303 302
313 305 304 313 316 314 314 315 317 315 314 316 313 311 311 310 312 317 319 317 321 323 312 310 318 322 322 317 316 318 319 321 315 312 318 326 335 336 336 333 325 321 318 315 316 314 313 308 302 301 300 300 302 302 303 305 305 306 306 307 307 307 308 308 308 307 307 307 306 305 305 305 305 304 305 305 305 305 305 305 304 304 303 303 303 303
310 310 309 312 315 314 314 316 315 313 316 315 311 310 314 313 314 316 316 315 317 319 314 313 316 317 318 316 318 319 320 321 317 319 326 330 339 343 337 329 322 321 319 318 321 319 318 312 304 301 300 300 302 302 303 304 305 306 306 307 307 307 308 308 308 307 307 307 306 305 305 305 305 305 305 305 305 305 304 304 304 304 303 303 304 303
309 315 317 316 316 315 318 317 310 308 312 313 308 310 313 312 315 316 317 319 317 315 319 319 313 315 322 323 323 319 316 319 321 327 331 329 335 338 332 325 322 321 318 318 320 321 320 310 300 298 300 301 302 302 303 304 305 305 306 306 306 307 308 307 308 307 307 307 306 305 305 305 305 304 304 304 304 304 304 304 304 303 303 303 304 304
309 311 313 316 318 317 316 311 306 309 310 309 306 310 314 314 315 317 317 320 319 316 318 319 311 312 321 326 326 317 314 322 327 330 332 328 329 328 324 321 320 320 319 320 318 316 314 304 299 300 300 301 302 302 303 303 304 305 305 306 306 306 307 307 307 307 307 306 306 306 305 305 305 304 304 304 303 304 303 304 303 303 303 304 305 305
308 305 306 310 313 312 309 305 305 310 310 308 310 314 317 317 315 318 320 317 318 324 323 317 312 311 314 324 328 318 315 321 323 327 328 322 319 318 317 317 317 316 318 321 321 319 311 301 299 302 301 302 302 302 303 303 304 305 305 306 306 306 306 306 307 306 306 306 306 306 305 305 305 304 304 303 303 303 303 303 304 303 304 304 305 305
308 308 309 308 307 307 309 308 305 306 309 310 316 319 317 321 319 320 324 317 318 330 324 314 312 312 313 320 325 320 317 316 317 319 319 315 315 315 314 314 313 311 313 317 320 326 321 310 306 303 301 302 303 302 303 303 304 304 305 305 305 306 306 306 306 306 306 306 306 306 306 305 304 304 304 303 303 303 303 303 304 304 304 305 305 305
316 313 310 306 305 306 312 316 307 306 312 314 319 321 319 322 321 320 326 321 321 326 315 310 312 312 314 315 314 316 314 313 314 313 314 314 315 315 315 314 311 307 308 311 314 322 324 321 317 308 302 302 302 303 303 303 304 304 304 305 305 305 306 306 306 306 306 306 306 306 306 305 305 304 304 303 303 303 303 303 304 305 305 305 306 305
322 315 309 307 308 304 309 318 315 312 314 314 318 323 323 322 318 322 328 318 316 318 311 308 311 313 317 316 314 315 313 313 315 314 315 315 314 314 313 310 307 306 307 307 311 319 324 327 321 307 300 301 302 303 303 303 304 304 305 305 305 305 306 306 306 306 306 307 307 306 306 306 305 304 304 303 303 303 304 303 304 305 305 306 306 305
321 316 311 310 310 305 307 313 317 318 315 314 317 318 320 324 320 322 327 318 314 319 315 309 313 322 322 317 316 314 311 313 312 312 313 313 313 311 310 310 312 316 315 310 313 320 322 321 313 302 299 301 302 302 303 303 303 304 305 305 305 305 305 306 306 306 307 306 307 307 306 306 305 304 304 303 303 303 303 303 303 304 305 306 306 306
314 315 310 306 306 305 309 308 307 314 315 312 312 313 317 323 321 317 316 315 314 317 319 313 317 325 319 313 315 312 312 315 312 312 314 317 317 312 315 321 322 325 326 322 327 333 327 315 302 296 299 301 301 303 302 303 303 303 304 304 305 305 305 306 306 306 306 307 307 307 306 306 305 304 304 303 303 303 303 303 303 304 305 306 306 306
313 316 309 305 306 304 306 306 304 311 314 311 311 317 316 312 318 319 311 308 308 314 320 316 317 320 314 312 317 318 318 318 316 316 317 319 318 316 323 327 324 327 330 327 328 329 327 319 304 297 299 300 301 303 303 303 304 304 304 304 305 305 305 305 305 306 306 306 306 306 306 306 305 304 304 304 304 303 303 303 303 304 305 306 306 306
316 317 310 306 309 305 301 305 306 306 310 313 314 317 311 305 313 318 313 314 315 317 320 316 316 319 315 314 320 320 317 316 317 317 316 318 318 318 323 323 321 321 321 321 322 319 319 321 310 298 298 301 301 303 303 304 304 304 304 304 304 305 305 305 306 305 306 306 305 306 306 305 305 304 304 304 304 304 303 303 303 304 305 306 306 306
313 315 315 306 307 307 301 305 311 306 304 309 311 308 308 312 318 314 313 321 318 315 320 318 313 314 313 317 320 316 314 316 315 314 316 318 317 318 320 320 320 320 322 326 330 327 326 328 313 298 298 302 302 303 304 304 304 304 304 304 304 305 305 305 305 305 305 305 305 305 305 305 305 304 304 304 304 304 303 303 303 304 305 306 306 306
310 312 318 307 304 307 304 308 316 311 305 306 308 307 307 314 320 316 314 319 317 316 320 320 319 318 315 318 321 315 314 315 314 315 318 318 316 316 317 319 321 323 326 329 329 328 329 330 312 298 300 303 302 304 304 304 304 304 304 304 304 304 304 304 304 304 305 304 304 305 304 304 304 304 305 304 304 304 303 303 304 304 305 306 306 306
309 309 318 310 303 307 310 311 314 315 312 310 311 313 310 308 313 313 311 312 319 323 321 319 320 319 314 315 318 315 314 313 313 316 316 316 317 316 314 315 318 321 323 323 325 324 325 325 309 297 300 303 302 304 304 303 304 303 304 304 304 304 304 304 304 304 304 304 304 304 304 304 304 304 305 304 304 304 303 303 304 304 305 306 306 306
310 311 322 317 310 315 318 310 305 308 311 311 313 315 313 310 313 316 313 310 313 317 319 319 318 315 315 316 316 315 313 312 313 314 315 315 316 316 316 313 312 315 317 316 318 317 317 320 310 299 300 301 301 303 303 303 304 303 304 304 304 304 304 304 304 304 305 304 304 304 304 305 305 304 304 304 303 303 303 304 304 305 306 305 305 305
313 313 318 319 317 316 310 302 300 303 305 307 310 312 312 313 315 320 322 317 312 309 312 314 316 317 316 315 317 318 315 311 311 311 313 313 311 312 314 313 310 310 313 313 314 311 309 311 304 298 298 299 300 302 302 303 303 303 304 304 304 304 304 305 305 304 305 304 304 305 304 305 305 304 304 304 304 304 303 304 304 305 305 305 304 304
312 314 314 316 322 316 304 299 298 300 303 307 309 308 308 312 314 317 321 318 315 313 312 313 315 317 315 314 318 320 317 312 311 310 310 311 308 308 312 316 317 316 314 312 310 308 308 308 303 302 302 299 298 300 301 302 302 302 304 303 304 305 305 305 305 304 304 304 304 304 304 304 304 304 304 304 304 304 304 305 305 304 304 304 303 303
312 317 316 315 321 322 314 310 306 304 305 309 313 309 307 310 312 311 311 309 313 317 316 315 315 313 313 315 316 317 316 315 314 311 310 312 310 308 310 314 315 316 314 313 311 310 310 310 309 310 308 299 298 300 300 301 302 302 303 303 304 305 305 305 305 304 304 304 304 304 303 304 304 304 304 304 304 304 304 305 304 304 304 303 303 303
311 317 317 315 317 316 316 320 320 316 311 309 311 309 307 309 310 311 313 312 313 315 313 315 315 311 311 314 312 311 312 312 311 310 309 311 311 310 310 311 310 311 311 311 311 310 310 310 309 310 306 299 298 300 300 300 301 301 302 303 303 304 305 305 305 304 304 304 304 304 303 303 303 303 304 304 304 304 305 305 304 304 304 303 303 303
314 314 314 316 318 314 313 316 316 314 314 314 314 311 308 307 307 312 316 315 315 315 312 313 313 310 311 311 310 309 309 309 309 309 308 309 311 312 311 311 310 309 308 308 308 307 308 307 306 306 304 299 298 299 300 300 301 301 301 302 302 303 304 304 304 304 304 304 303 303 303 303 303 304 304 304 305 304 304 304 304 304 304 303 303 303
314 313 311 313 313 311 311 312 311 311 313 316 318 315 311 307 306 310 312 313 315 316 312 311 311 310 310 309 309 309 309 309 309 308 308 308 309 311 311 311 311 309 307 307 306 306 306 306 304 304 304 300 297 299 300 300 301 301 301 301 302 302 302 303 303 303 303 303 302 302 302 303 303 303 304 304 304 304 304 303 303 303 303 303 302 302
316 316 313 311 310 312 310 309 311 311 309 312 314 315 314 309 307 309 309 310 313 312 311 311 311 311 309 308 309 308 308 308 308 308 307 307 308 308 309 310 310 308 306 305 305 305 305 305 304 304 304 301 297 297 299 299 300 301 301 301 302 302 302 303 302 302 302 302 302 303 303 303 303 303 303 303 303 303 303 303 303 303 302 302 302 301
313 317 316 311 309 312 310 308 309 308 307 309 309 310 312 310 309 308 308 309 310 310 311 310 311 310 308 308 308 308 308 308 307 307 307 307 307 308 308 309 308 307 306 305 305 305 304 304 304 303 303 302 298 296 297 298 299 300 301 301 301 302 303 303 302 302 302 302 303 304 303 303 303 303 303 303 302 303 302 302 302 302 301 301 301 301
307 313 314 310 310 314 311 306 307 307 307 308 308 309 309 308 306 306 307 308 308 308 309 309 309 309 308 307 308 307 307 307 307 308 307 307 307 307 308 308 307 307 306 305 305 304 304 304 304 302 304 304 299 296 296 298 299 300 301 301 301 302 302 302 302 302 302 302 303 303 303 302 302 302 302 302 302 302 301 301 301 300 300 300 300 300
305 309 310 308 310 317 312 305 305 306 304 303 307 310 308 306 307 307 306 306 307 308 308 308 308 308 307 307 307 307 308 307 307 307 307 306 307 307 307 308 307 307 306 305 304 304 304 304 303 303 304 302 297 295 297 298 299 299 300 301 302 302 301 301 301 302 302 302 302 301 301 301 301 301 301 301 301 300 300 300 300 300 299 299 299 299
306 310 313 309 309 315 313 305 304 304 302 303 307 308 306 306 306 306 306 306 306 307 307 308 308 307 307 307 306 307 308 307 307 307 308 307 306 306 307 307 306 305 304 304 304 303 303 303 303 303 302 298 295 296 298 299 299 299 301 302 302 301 301 301 301 302 302 301 301 300 301 301 300 300 300 300 300 300 299 299 299 299 299 299 299 298
305 309 311 307 307 316 315 307 304 304 303 305 307 306 306 306 305 306 306 306 306 306 306 307 306 306 306 306 306 306 306 305 306 308 308 307 305 305 306 305 305 304 303 303 303 303 302 302 302 299 297 296 297 298 299 298 299 300 300 301 301 300 300 300 300 301 301 301 301 301 300 300 300 300 300 300 300 299 299 299 299 299 299 298 297 296
305 306 306 304 306 312 310 306 306 305 302 304 308 307 305 304 304 304 305 305 304 304 305 306 305 306 306 305 305 305 305 305 307 308 307 305 304 304 305 304 304 303 304 303 304 304 304 304 305 302 296 296 298 299 299 299 299 299 300 300 300 300 300 300 300 300 301 301 301 301 300 300 300 300 300 299 299 298 298 298 298 298 297 296 296 296
306 305 306 306 306 307 307 307 306 304 302 305 308 305 301 303 304 302 304 305 303 303 304 304 304 304 304 304 304 304 305 306 307 307 305 304 304 304 304 305 305 304 305 305 306 308 306 303 302 301 298 297 298 298 298 299 299 299 299 299 299 300 300 299 299 299 300 300 300 300 299 299 299 299 299 298 297 297 297 297 297 296 296 295 295 295
305 306 306 307 306 306 309 310 306 303 303 304 306 304 303 308 310 306 306 306 306 306 304 302 303 303 303 303 303 303 304 304 305 307 306 304 305 306 305 304 305 305 306 305 302 301 300 298 297 298 297 298 298 297 297 298 298 298 298 298 298 298 298 298 297 298 298 298 298 298 298 298 298 297 297 296 296 296 296 296 296 295 295 294 293 293
301 305 305 307 306 304 305 307 305 304 304 304 307 307 305 307 310 308 305 305 308 310 307 304 304 304 304 304 304 304 305 304 306 311 310 307 307 310 310 307 306 306 306 305 302 297 295 296 296 296 297 297 297 297 297 297 297 297 297 297 297 297 296 296 296 296 296 296 296 296 296 297 297 297 296 296 296 296 296 295 295 295 294 293 293 293
300 302 302 305 307 304 303 305 305 304 304 307 310 308 303 304 308 308 305 305 308 308 307 306 307 306 305 305 305 306 305 305 306 309 309 309 309 309 312 312 312 310 303 299 298 296 294 295 295 295 295 295 295 297 297 297 296 297 297 296 296 296 295 294 294 295 296 296 296 296 297 296 296 296 296 296 296 296 296 295 295 294 293 293 292 292
300 302 302 303 305 304 304 305 305 303 303 306 308 306 303 305 309 309 306 307 311 309 306 306 306 306 305 305 305 305 305 306 307 306 308 311 308 306 309 310 310 308 301 293 293 294 294 294 294 294 293 293 294 296 297 296 296 296 296 296 295 295 294 294 295 296 296 297 297 297 297 296 296 296 296 296 296 296 295 295 294 293 293 292 292 291
299 301 302 302 304 304 303 304 304 304 304 305 306 305 303 305 307 307 306 308 312 313 311 308 306 307 306 305 306 306 304 305 306 306 309 310 307 308 310 306 300 298 296 292 291 293 294 294 293 293 293 293 294 296 296 296 295 295 295 295 294 293 294 294 295 296 296 296 296 296 296 296 296 295 295 295 295 295 294 293 293 292 292 291 291 290
300 301 303 301 303 304 304 304 304 304 304 305 305 304 303 305 306 306 307 309 312 314 315 313 310 309 308 306 306 305 304 304 304 305 307 307 307 309 308 303 299 297 295 293 293 293 292 293 293 292 292 292 293 294 295 295 294 294 294 293 291 291 292 293 294 294 294 294 294 294 294 294 294 294 294 294 294 293 293 292 292 292 291 290 290 289
303 304 305 301 303 306 305 304 304 305 305 304 303 301 302 305 307 307 307 310 312 314 315 314 312 311 309 308 308 306 305 305 303 303 304 303 303 303 301 300 301 301 297 295 294 292 290 291 290 288 289 290 291 291 293 293 293 293 291 288 287 288 290 291 292 292 292 292 293 292 292 292 292 292 292 292 292 292 292 291 291 290 290 289 288 288
302 305 309 305 303 307 307 304 305 308 306 303 303 304 303 303 306 309 308 307 309 312 311 310 310 309 307 308 310 308 306 305 305 305 305 303 301 300 299 300 301 301 298 293 290 288 289 290 289 286 285 287 287 288 290 291 291 289 286 283 284 287 288 289 290 290 290 290 290 290 290 290 290 290 291 291 290 290 290 290 289 289 288 288 287 286
302 304 309 308 303 305 307 305 305 308 307 302 303 306 305 302 303 307 308 307 307 308 307 306 306 306 305 305 307 306 305 305 305 304 303 303 303 301 301 302 299 296 294 290 286 286 288 288 286 284 282 281 283 284 284 286 286 283 280 280 283 285 286 287 288 288 288 288 288 288 288 288 288 288 288 288 288 288 288 288 288 287 287 286 286 285
302 301 303 304 303 302 302 303 304 307 306 302 302 305 306 304 304 304 305 305 305 306 306 305 304 304 305 305 305 304 304 304 303 303 303 304 304 302 303 303 297 290 288 286 284 284 285 285 283 281 279 278 279 279 279 280 280 278 277 279 281 283 283 285 286 286 286 286 285 286 286 286 286 286 286 286 286 286 286 286 285 285 285 285 284 283
303 301 300 302 303 303 302 303 303 303 303 303 302 302 303 304 303 303 303 303 303 302 304 305 305 305 305 305 304 304 304 302 301 303 304 303 302 303 304 302 295 288 285 284 281 281 282 282 281 279 278 276 275 275 276 277 276 275 276 278 280 281 282 283 283 284 283 283 283 283 283 283 283 283 283 284 284 284 284 283 283 283 283 283 283 282
302 300 300 301 301 301 302 303 303 303 303 303 302 301 301 302 302 302 302 302 302 302 302 304 305 304 303 303 303 303 302 301 300 301 301 301 302 302 299 294 288 284 281 279 278 277 278 278 278 277 276 274 273 272 273 274 274 275 276 277 278 280 280 281 281 281 280 280 280 280 280 280 280 281 281 281 281 281 281 281 281 281 281 281 281 281
301 300 301 302 301 300 300 301 301 302 302 301 301 301 301 301 301 302 302 302 302 303 303 303 303 302 301 302 302 301 301 301 299 298 300 302 301 295 289 284 282 280 279 277 275 275 275 275 274 274 273 272 271 271 271 272 273 274 275 276 277 278 279 279 279 279 279 279 279 278 278 278 278 278 279 279 279 278 279 279 279 279 279 279 279 279
301 300 301 301 301 301 301 302 302 301 301 301 301 302 302 301 300 300 301 301 301 301 301 301 300 299 300 300 299 299 300 300 298 297 298 296 290 285 281 279 278 277 277 275 274 273 273 272 272 272 271 271 270 269 269 270 271 272 273 274 275 277 277 278 278 278 277 277 277 277 277 277 277 277 277 277 277 277 277 277 277 277 278 278 278 278
300 300 300 300 300 300 301 304 303 302 301 301 300 301 303 300 299 299 298 299 300 300 299 299 299 298 300 297 292 292 296 296 294 294 293 286 280 278 278 277 277 276 275 275 273 272 272 271 270 270 270 269 268 268 268 269 270 271 272 272 273 275 275 276 276 275 275 275 275 275 275 275 275 275 275 276 276 276 276 276 276 276 276 276 277 277
Wind_Speed
2 2 2 4 6 5 6 6 6 5 5 4 3 1 3 5 6 6 5 6 1 1 7 6 7 14 17 15 14 14 11 9 15 14 11 12 11 10 11 11 10 11 11 10 12 14 14 16 18 19 21 23 24 25 27 29 30 31 32 33 33 33 33 34 34 32 31 30 28 26 26 26 24 23 22 20 20 19 18 17 16 16 14 13 12 10
3 3 6 6 7 4 3 4 6 4 4 3 1 2 4 4 6 7 3 5 2 1 5 2 5 15 17 17 15 13 11 13 14 12 13 13 10 9 10 12 11 9 9 9 10 11 12 14 15 16 18 20 23 25 28 30 31 32 33 33 34 34 35 36 35 33 33 32 30 28 28 27 25 24 24 22 21 20 19 18 17 17 16 14 13 11
2 4 7 3 3 4 4 4 5 4 4 3 2 1 4 3 5 7 4 5 2 1 5 5 7 15 19 17 17 15 11 12 12 10 12 11 9 10 10 10 10 9 10 9 9 7 8 11 11 14 17 20 23 25 28 30 30 31 33 33 34 35 37 37 36 34 34 32 30 28 26 25 24 24 24 23 21 21 20 20 19 18 17 15 14 12
0 5 5 1 4 5 4 3 5 4 2 2 3 2 4 3 2 4 4 5 2 1 4 6 6 12 15 12 13 12 8 7 8 8 9 8 10 12 10 8 8 10 11 10 10 7 6 7 8 12 16 19 21 22 25 27 29 31 34 34 35 35 37 37 36 35 33 31 28 26 24 22 22 22 22 22 22 22 22 21 21 20 19 17 15 14
4 3 1 5 3 3 4 2 4 4 2 2 4 5 4 3 3 5 5 6 4 2 2 5 6 7 7 7 8 7 3 5 5 5 8 8 9 10 9 9 8 9 9 9 11 9 6 5 7 11 14 16 19 22 25 29 31 33 35 36 36 36 36 37 36 35 33 30 28 26 21 18 19 18 19 22 24 24 24 24 23 21 20 18 16 15
5 2 2 5 3 3 5 2 3 5 2 5 4 6 5 3 4 5 6 6 5 4 3 5 5 6 6 6 9 8 7 9 5 4 9 9 7 6 7 8 7 7 7 8 9 9 7 6 6 9 12 15 19 24 27 30 32 34 34 35 35 35 36 36 36 36 34 32 30 29 25 22 21 19 21 26 28 27 27 26 24 22 20 19 17 16
1 1 1 4 4 4 4 2 5 6 3 3 3 3 4 2 0 3 5 4 2 4 4 4 2 6 7 7 12 9 9 13 10 7 9 9 6 5 5 6 6 6 6 6 8 8 7 6 5 8 13 17 21 24 25 26 29 31 32 34 35 35 35 36 36 36 35 34 33 32 31 29 27 26 27 29 28 27 27 25 24 23 21 19 18 18
2 2 2 3 4 4 2 2 4 6 6 3 3 3 4 4 2 1 4 3 1 4 5 3 3 3 6 7 10 6 8 13 12 11 9 6 6 6 5 6 6 6 6 6 7 7 7 6 6 9 13 18 20 19 20 24 27 30 31 33 34 35 35 36 36 37 37 36 35 34 33 32 31 30 29 28 26 26 25 24 24 23 22 21 20 19
2 2 3 4 5 2 3 4 3 5 4 3 4 4 4 4 3 3 4 3 1 3 5 3 2 1 6 7 6 4 6 10 11 10 8 7 7 6 7 8 7 6 6 5 6 7 7 6 7 10 12 15 17 17 18 23 26 28 29 30 32 33 34 35 36 37 37 36 36 35 34 32 32 30 28 24 24 24 24 24 24 24 23 22 21 21
0 2 5 6 4 3 4 3 3 4 2 3 4 3 3 4 4 4 4 3 3 3 3 3 2 0 5 7 4 1 2 7 8 7 7 8 8 7 8 9 8 7 6 5 6 6 7 9 10 10 10 11 14 15 17 19 22 24 26 27 29 32 33 34 35 36 37 36 36 36 35 34 32 29 26 23 22 23 24 24 25 25 25 24 23 23
2 2 2 3 3 4 4 2 1 3 3 3 3 3 4 4 4 4 3 3 4 2 5 4 1 1 3 6 5 3 3 4 3 6 8 9 10 9 8 7 7 7 6 6 6 6 7 10 11 8 8 10 11 13 15 17 20 22 24 26 28 30 31 32 34 35 36 37 37 37 36 35 33 30 28 25 23 24 25 26 26 26 26 25 25 25
1 0 2 1 1 3 5 3 2 2 2 4 3 3 3 4 4 4 4 4 3 4 6 4 2 2 3 6 5 4 5 4 2 6 11 12 13 11 9 8 6 6 6 6 7 6 6 7 7 6 7 9 10 13 16 17 19 21 24 26 27 28 30 31 33 35 36 37 38 38 37 36 35 33 31 30 29 28 28 28 28 27 27 27 27 27
2 3 1 1 1 3 4 3 3 4 4 4 4 4 3 3 4 3 4 1 2 5 4 3 2 2 6 9 9 11 12 9 7 8 10 11 13 12 12 11 7 6 7 6 6 6 5 5 5 5 7 9 11 15 17 18 20 22 24 26 27 29 31 32 33 34 36 38 38 38 37 37 36 34 34 33 32 32 31 30 29 29 29 29 29 29
3 2 2 1 1 0 3 3 1 1 2 3 4 4 3 2 2 2 4 2 3 4 2 3 2 2 6 8 9 11 10 9 8 9 10 10 11 12 12 11 10 9 8 6 6 6 5 5 5 6 8 11 13 16 18 20 21 22 24 27 29 30 31 32 33 35 36 38 39 39 38 38 37 36 36 36 35 34 33 32 31 31 31 31 31 30
1 3 1 2 2 1 1 3 4 4 4 3 4 5 3 4 4 3 4 3 4 3 3 3 1 3 4 5 7 7 7 7 7 8 8 8 9 9 10 10 10 10 7 6 6 6 6 6 6 7 9 12 14 16 18 21 22 23 25 27 29 31 31 32 34 35 36 38 38 39 39 39 38 38 38 37 37 35 34 33 32 32 32 31 31 29
2 4 1 1 3 0 0 2 3 4 3 1 2 5 2 3 4 2 3 4 1 3 3 2 3 5 4 9 13 9 7 7 5 4 5 7 7 6 7 9 8 8 7 6 6 6 6 6 6 8 10 13 14 16 18 21 23 25 26 28 30 31 32 33 35 36 37 38 38 38 39 40 39 39 38 38 37 36 35 34 33 33 32 32 31 29
1 4 2 2 2 1 1 2 1 1 2 2 2 2 4 3 5 3 1 1 3 1 4 1 3 5 4 9 11 7 8 9 7 5 5 7 7 5 6 7 6 7 7 6 6 7 6 5 6 9 11 13 14 16 18 21 24 26 28 29 30 31 31 32 34 36 37 37 37 38 39 40 40 39 39 39 39 38 36 35 34 33 33 32 31 30
3 3 3 1 0 1 1 0 2 2 2 4 2 4 3 2 4 4 0 3 3 2 4 1 3 5 3 4 7 8 10 11 10 9 7 8 8 7 7 7 7 7 7 7 7 7 7 6 6 8 11 14 15 17 19 21 23 25 28 29 30 31 32 33 35 36 36 36 37 38 39 40 40 40 40 40 39 38 36 35 35 34 33 33 32 31
2 2 4 1 1 2 3 1 1 3 2 3 2 2 2 2 1 2 1 1 1 2 4 3 4 4 4 5 6 9 10 11 11 9 8 9 8 7 8 8 8 7 6 7 7 6 6 6 6 9 11 13 15 17 18 19 21 24 27 28 29 31 33 33 34 34 35 36 36 37 38 39 39 39 40 40 38 37 36 36 36 35 34 34 33 33
2 0 4 2 1 2 2 1 3 1 2 2 1 2 2 3 3 2 2 3 3 2 3 4 4 3 7 6 5 10 12 10 10 9 7 9 8 7 7 7 8 7 6 6 6 6 6 6 8 10 12 14 15 16 18 18 20 22 25 27 29 30 31 30 31 32 34 35 36 36 36 36 37 39 39 40 38 37 37 37 37 36 36 36 35 35
3 1 3 3 3 2 2 3 5 6 4 2 0 1 1 1 2 0 1 2 3 2 2 2 4 7 7 5 8 13 13 10 9 8 8 9 9 8 7 7 8 7 7 7 6 7 7 7 9 11 12 13 14 16 17 18 20 22 24 27 29 29 29 30 31 32 34 35 36 36 35 36 37 38 39 39 38 38 39 38 38 38 38 37 37 36
2 2 3 1 2 3 5 4 2 3 4 5 4 5 4 4 4 1 3 1 2 2 4 2 4 10 6 5 9 12 11 9 8 7 8 9 9 9 8 7 7 7 8 8 7 7 7 7 9 10 10 11 13 16 18 19 21 23 25 27 28 28 30 32 33 34 35 35 35 36 37 38 38 38 38 38 39 39 39 40 40 40 39 38 37 36
3 3 2 3 4 5 5 4 1 0 2 3 3 3 4 4 5 4 3 3 1 1 2 4 1 9 5 5 7 9 9 7 4 5 8 9 8 8 9 9 7 7 9 9 8 8 8 8 9 10 10 12 14 17 18 20 22 24 26 27 27 29 31 33 33 33 32 33 34 35 37 37 38 37 37 38 39 40 40 41 41 40 39 38 37 36
2 2 1 4 4 2 4 4 2 2 3 1 3 2 4 3 3 4 5 3 2 3 3 3 2 10 5 4 5 7 8 9 6 5 8 9 9 7 9 10 9 8 10 9 9 8 8 9 9 8 8 10 13 16 18 20 22 24 26 26 27 30 32 32 31 31 31 31 33 34 34 36 36 36 37 38 38 39 40 40 39 38 38 37 36 35
2 2 2 2 4 5 6 5 4 3 1 3 3 2 5 4 5 3 2 2 1 6 8 5 5 12 7 2 5 7 6 8 11 8 7 7 10 8 7 9 8 9 10 10 10 10 10 10 9 8 7 8 12 15 16 19 21 23 26 27 29 31 32 31 31 31 31 32 33 33 34 34 35 35 37 37 38 38 38 38 38 37 36 36 35 36
2 3 3 3 3 4 4 3 3 3 2 3 2 3 6 6 7 4 2 2 3 6 7 6 8 12 9 11 14 12 8 9 13 12 8 7 9 9 8 8 8 8 9 10 11 11 10 10 10 10 9 10 14 16 16 18 20 22 25 27 29 31 30 30 30 31 31 32 33 34 35 34 34 34 35 36 37 37 36 36 36 36 36 36 36 37
3 2 4 6 7 8 7 6 5 3 3 3 3 4 6 7 7 5 3 4 5 3 3 6 12 15 14 16 21 19 16 15 15 15 13 8 8 9 8 8 8 7 8 10 9 9 10 11 12 12 11 12 16 18 18 18 19 20 22 24 26 27 28 28 27 29 30 31 32 32 32 33 34 34 35 36 36 36 35 35 35 35 35 35 35 35
4 3 6 8 10 12 8 5 5 4 4 6 6 5 7 8 7 8 8 8 5 2 6 12 15 16 17 20 22 20 19 18 16 17 16 11 7 7 6 7 8 9 9 9 9 10 11 12 13 12 11 12 15 18 18 19 20 20 21 23 23 23 25 25 25 26 27 28 28 29 30 31 32 33 34 34 34 34 34 34 34 34 34 34 34 34
4 4 5 6 9 12 10 6 6 5 4 5 7 7 8 10 12 15 16 10 7 7 15 14 12 13 17 21 22 19 18 18 17 16 15 13 10 7 6 8 10 12 12 12 11 11 11 12 12 12 11 11 12 15 17 18 19 20 21 22 22 22 24 24 24 25 25 26 28 30 31 31 31 32 32 32 32 33 33 34 34 34 34 34 35 35
4 3 2 2 4 11 11 7 6 6 5 5 7 9 9 13 17 16 14 14 15 17 20 17 15 16 19 21 21 19 18 15 13 15 15 15 14 11 9 11 13 14 13 13 12 11 10 12 12 11 11 10 10 13 16 17 18 19 20 21 21 23 24 24 25 26 26 28 31 32 32 31 31 32 32 32 33 33 34 33 33 33 34 34 35 35
2 2 1 4 2 10 7 2 0 3 5 6 7 10 13 14 12 11 14 15 15 17 20 19 17 17 21 22 21 20 19 14 14 17 16 14 14 12 11 11 12 13 13 13 12 11 11 11 11 10 10 10 11 14 16 17 19 19 19 19 21 23 23 23 25 27 28 30 32 31 30 30 30 30 31 32 32 32 32 31 31 31 32 33 33 33
3 2 2 5 1 8 5 4 3 2 2 2 7 13 18 13 9 12 13 11 12 17 19 14 11 14 20 21 16 13 14 15 17 16 12 12 11 10 10 11 12 13 13 12 12 11 12 12 11 11 11 10 12 15 17 18 18 18 18 20 21 21 21 22 25 26 28 30 29 27 27 27 27 28 29 29 29 29 28 28 28 30 31 32 32 32
5 3 1 2 2 7 6 2 2 3 3 4 8 16 20 16 14 14 9 8 16 18 12 10 12 16 17 15 11 10 13 14 13 10 8 10 11 9 9 11 12 13 12 12 12 13 13 12 10 10 10 10 13 16 18 18 17 18 19 20 19 18 19 22 25 27 28 27 26 25 25 25 26 27 28 28 28 27 27 27 29 31 32 33 32 31
5 5 4 3 2 6 9 4 3 6 10 9 7 13 18 18 19 18 13 15 19 15 11 12 14 14 15 13 13 16 14 7 5 7 9 9 9 10 11 11 12 13 12 11 12 12 12 11 9 10 12 15 18 19 19 17 17 19 19 17 17 17 19 22 24 26 27 26 25 25 25 25 26 28 28 27 27 26 27 29 31 32 32 32 30 30
6 5 3 3 2 4 4 6 5 12 11 5 2 4 10 12 12 11 13 16 18 14 15 17 18 20 21 17 15 16 12 5 4 8 11 12 11 10 12 14 13 13 11 11 11 11 11 10 9 9 12 16 18 18 18 17 16 17 17 17 17 17 20 23 24 26 27 27 27 27 27 27 28 28 28 27 26 27 28 30 32 32 31 30 30 31
8 6 3 3 3 1 2 3 7 10 6 6 6 1 2 3 2 2 10 15 17 17 17 19 22 23 20 18 17 14 8 5 5 9 15 17 12 10 11 14 14 12 11 10 10 10 10 10 9 10 14 18 19 18 18 17 16 15 16 16 17 18 20 22 24 26 27 28 28 28 28 28 28 28 27 26 25 26 29 30 31 30 29 28 28 29
7 6 3 3 4 3 2 5 6 9 12 12 10 6 6 7 8 7 9 12 13 17 19 19 19 19 16 17 18 9 0 2 5 10 15 13 9 11 13 14 13 12 10 10 10 11 13 13 13 14 16 19 21 19 18 17 15 15 16 15 16 18 18 20 23 26 25 25 25 24 24 25 25 25 25 23 24 26 28 28 28 27 26 26 26 28
3 4 5 5 4 3 2 5 5 8 13 9 9 12 14 13 12 9 6 7 6 13 16 13 13 15 14 15 12 1 4 1 4 9 11 6 7 9 10 11 12 10 10 10 9 10 14 16 16 16 15 16 19 19 16 15 13 13 14 14 14 15 16 18 20 19 17 17 17 17 18 20 22 22 22 22 24 26 27 26 25 25 25 25 26 27
2 2 4 4 4 3 4 5 6 10 10 4 9 10 8 8 8 8 1 7 7 11 11 8 10 14 13 12 7 6 6 2 5 8 10 8 6 7 7 9 10 9 9 9 7 9 14 17 18 17 13 11 15 17 15 13 11 11 12 11 11 12 13 14 14 13 13 14 14 15 15 17 19 20 22 23 24 25 25 24 24 23 23 24 25 26
3 3 3 6 7 5 5 5 6 8 7 4 6 6 2 6 10 10 3 10 8 11 12 9 11 14 11 9 5 6 6 7 7 7 9 8 6 5 7 7 7 6 7 7 7 8 13 16 18 16 12 11 13 14 13 11 10 11 12 10 8 9 10 10 12 12 13 13 12 13 13 13 15 19 21 22 22 22 22 22 22 21 21 23 24 24
1 1 2 6 7 6 6 7 9 9 6 5 4 5 7 5 7 7 10 8 5 9 11 9 11 13 11 8 6 6 9 11 8 5 3 3 5 5 5 4 3 4 5 7 8 9 10 12 11 10 10 11 12 12 11 8 7 8 8 4 2 3 6 8 10 10 10 9 8 9 10 10 12 16 17 18 19 19 20 19 19 20 20 21 21 22
3 2 2 3 4 3 5 6 10 11 6 11 8 6 8 5 3 8 9 3 7 9 9 8 11 11 10 9 8 8 10 10 8 7 6 5 6 7 7 5 4 5 5 6 7 8 8 8 7 8 10 11 11 10 9 6 5 4 1 4 7 8 7 6 6 6 6 6 5 6 6 7 10 12 13 14 15 16 17 17 17 18 19 19 20 20
8 6 3 4 5 3 3 6 9 10 7 16 13 4 4 7 8 8 6 3 6 9 8 8 9 9 8 9 9 10 11 10 9 9 9 9 7 6 6 5 3 4 4 3 4 6 5 3 5 10 11 12 11 9 8 6 5 5 6 8 11 10 7 6 5 5 5 5 5 5 5 6 7 8 10 11 12 13 15 15 15 16 17 18 19 19
8 7 4 4 5 6 6 10 10 6 6 14 14 8 10 14 9 6 6 7 6 7 7 7 9 9 9 9 9 10 9 9 10 9 8 8 5 3 3 2 1 1 2 2 3 5 4 3 6 10 12 14 13 12 11 8 7 9 9 11 11 9 7 7 6 5 5 5 5 5 5 6 6 7 7 8 10 11 12 13 14 15 15 16 17 17
10 12 9 7 7 8 9 11 8 2 3 10 11 8 12 17 13 7 7 7 6 6 7 6 8 8 8 9 9 8 7 8 9 8 7 6 5 2 1 1 2 3 3 4 5 7 6 6 9 10 13 16 16 15 14 12 11 10 11 12 11 9 8 7 6 5 5 5 6 6 6 6 6 6 6 6 7 9 10 11 12 13 13 14 15 15
8 11 8 6 7 9 12 11 4 2 4 10 13 9 7 10 11 8 7 8 7 5 5 5 6 6 6 7 6 7 7 8 8 7 6 6 5 2 2 3 3 4 4 4 6 7 6 9 10 10 11 14 17 18 17 16 15 13 12 12 11 10 8 7 6 6 6 6 7 6 6 6 6 5 5 5 5 6 7 8 9 10 11 11 13 14
5 6 6 9 9 9 12 12 8 9 11 10 11 13 10 8 9 7 7 9 7 5 4 5 6 6 5 6 7 8 9 8 6 7 7 6 5 1 3 3 3 4 5 5 6 7 7 8 8 8 9 11 14 17 18 17 17 15 13 13 12 10 9 8 7 7 8 8 8 8 7 7 6 6 6 5 5 4 4 5 6 7 8 9 11 12
4 6 8 13 13 10 13 12 6 7 11 8 8 11 10 10 11 10 9 9 7 6 6 6 6 6 5 6 8 8 9 9 7 7 7 5 2 1 3 3 3 4 6 7 8 8 9 9 7 8 8 9 11 15 18 18 17 16 14 14 13 11 10 10 9 9 10 9 9 9 9 9 9 8 8 7 6 5 4 3 3 3 3 4 5 7
4 6 7 6 8 12 15 12 5 8 13 13 11 10 9 10 12 11 11 10 8 8 9 9 8 8 8 8 8 7 9 10 6 4 4 2 2 3 3 4 4 5 6 8 10 11 11 10 9 9 9 9 10 14 17 18 18 17 16 15 14 12 11 10 10 10 11 11 11 11 11 11 11 10 9 8 7 6 6 6 5 3 2 2 4 4
6 9 8 3 7 13 10 7 7 8 13 14 11 10 12 11 10 11 12 11 10 10 10 9 9 8 6 4 4 3 7 8 3 1 1 2 4 4 4 5 5 6 7 8 9 11 12 12 11 11 10 9 10 14 17 18 18 18 17 16 14 13 12 10 10 11 12 13 13 13 12 12 11 11 10 8 7 5 5 6 6 6 5 4 6 6
9 13 12 9 12 13 6 5 10 10 11 9 4 2 4 4 5 5 7 7 7 7 6 6 7 7 3 3 5 3 2 3 3 3 5 5 5 5 6 6 5 6 7 7 8 10 11 11 10 11 10 9 11 14 17 19 19 19 18 17 16 14 12 11 11 12 13 14 14 13 13 13 12 11 10 10 9 7 6 6 6 7 7 7 7 7
Wind_Direction
93 134 191 205 214 219 219 199 177 173 126 111 141 143 250 263 282 267 267 288 314 265 264 242 251 274 281 279 273 276 277 266 267 273 270 267 269 269 272 274 272 266 265 279 288 277 265 257 253 247 239 231 226 223 221 220 219 217 214 212 210 209 207 206 208 209 209 207 207 209 212 215 215 216 219 222 225 227 231 234 236 239 243 248 248 243
82 179 230 229 211 200 213 168 134 139 100 75 177 277 286 247 269 273 275 303 320 221 268 345 318 286 282 284 279 271 269 266 263 268 269 266 266 267 268 271 272 271 277 290 288 281 274 261 249 239 231 222 217 215 215 217 217 215 212 212 210 207 205 206 209 209 210 209 209 208 211 215 215 216 219 221 224 227 230 233 236 239 242 247 248 242
25 228 247 248 170 112 68 103 117 130 110 86 147 243 290 257 281 294 317 323 336 205 275 358 345 291 284 285 280 271 255 255 258 253 260 269 271 268 264 268 277 287 291 292 289 289 286 268 246 231 223 218 217 215 214 215 214 211 209 211 209 207 206 206 209 211 212 212 212 213 215 216 216 217 220 223 226 228 230 233 236 239 241 245 246 242
247 254 258 126 122 107 70 69 99 103 104 121 147 166 270 273 316 290 306 321 306 223 279 321 315 283 288 292 284 278 252 253 271 261 258 255 253 260 266 270 275 281 287 295 295 296 298 282 245 224 219 217 215 213 212 210 209 208 209 210 209 208 207 207 208 211 211 211 210 212 217 219 218 219 221 222 225 226 228 231 234 237 240 243 244 242
219 240 132 101 98 128 123 99 119 134 285 283 192 193 236 256 233 240 284 318 317 344 333 326 315 285 301 316 300 298 283 267 284 304 289 262 247 261 276 278 265 262 271 284 289 295 304 284 243 226 220 217 212 210 211 210 208 209 209 210 209 208 208 207 208 208 208 206 204 204 207 210 213 216 216 216 219 221 223 228 231 235 238 241 243 243
252 250 125 116 86 110 136 198 201 170 249 306 240 216 226 239 253 274 314 339 1 353 346 16 358 293 307 319 287 292 309 291 294 335 301 288 285 271 265 272 268 265 264 264 275 287 295 280 251 234 220 214 214 214 214 212 211 210 209 208 208 207 207 207 207 206 206 205 203 200 198 199 201 204 210 215 218 220 222 227 230 234 238 241 243 244
262 15 75 140 136 109 106 258 239 167 137 302 263 213 203 173 177 323 348 13 17 294 294 64 87 269 303 294 268 285 311 296 298 312 289 281 288 266 249 269 284 290 285 278 279 280 282 272 248 233 221 215 218 219 216 213 211 209 208 208 207 208 207 206 206 206 206 205 203 204 204 206 205 207 215 221 223 225 227 230 232 234 237 240 244 244
125 78 47 94 102 104 113 269 239 147 126 249 243 143 118 101 106 120 54 53 246 277 312 37 129 248 295 269 261 296 311 293 299 304 286 266 265 268 277 286 288 294 300 300 291 284 280 266 239 235 229 222 222 221 216 213 212 210 210 209 207 208 207 207 206 206 207 206 205 207 209 212 213 216 222 225 224 226 229 230 232 235 237 240 243 243
130 154 187 121 90 120 204 232 224 142 124 246 218 140 118 107 121 124 83 62 333 346 326 329 99 230 275 272 286 323 300 291 298 297 286 278 277 287 299 297 292 293 296 287 278 282 284 272 256 249 243 234 226 222 218 215 214 212 210 209 207 207 207 207 207 207 208 208 209 209 210 213 218 222 226 226 225 225 227 229 232 235 237 239 241 242
203 214 195 143 134 206 212 220 204 144 137 214 164 109 70 76 78 74 78 75 36 16 275 287 39 229 268 282 295 325 245 274 288 286 277 277 280 282 289 295 301 305 300 285 274 273 273 276 278 269 254 241 229 223 220 217 214 212 210 209 208 208 208 208 208 208 208 208 210 211 212 215 218 220 223 225 226 225 225 227 230 232 235 237 240 242
332 321 192 143 170 182 157 156 168 125 125 137 114 51 28 32 36 44 54 71 55 316 261 277 308 175 280 282 257 196 199 234 287 306 294 292 293 284 276 275 281 293 299 302 300 287 277 282 286 276 245 234 226 219 218 216 214 212 211 210 210 210 209 209 209 209 209 209 211 214 215 217 219 219 219 220 221 222 223 225 228 232 234 237 239 241
354 347 220 203 160 132 110 82 40 59 88 99 85 49 25 351 10 24 359 42 79 256 266 294 293 179 245 265 249 253 260 232 231 294 295 299 302 300 294 283 274 285 294 302 304 300 304 299 287 268 236 223 214 210 210 212 212 211 211 210 210 210 210 210 210 210 211 211 213 216 218 220 221 221 220 221 221 222 223 225 228 230 232 235 237 239
241 214 246 16 160 144 114 85 36 13 34 75 81 68 51 342 357 359 319 2 198 249 274 322 319 211 246 263 264 271 277 265 243 254 268 278 288 294 298 300 304 305 299 297 295 294 298 287 269 255 235 218 209 207 208 209 209 210 210 210 210 211 212 211 211 212 213 213 215 217 219 221 223 223 224 225 226 226 227 227 228 228 230 233 235 238
311 301 18 79 281 199 130 134 152 304 69 111 128 111 111 109 52 303 279 285 269 263 279 306 320 266 274 275 255 250 262 263 250 250 253 258 269 279 290 299 304 301 292 285 282 282 275 260 248 243 236 225 217 212 209 209 209 209 209 210 212 214 214 213 213 214 214 216 218 219 221 223 224 224 226 228 229 230 231 231 230 232 233 235 237 240
259 302 37 137 284 351 127 171 164 147 131 159 154 123 135 151 151 232 238 233 266 290 298 302 306 214 234 275 267 250 256 257 246 253 265 267 267 277 290 294 293 291 285 272 268 265 256 247 243 241 239 234 228 221 214 211 209 209 210 211 213 215 215 214 214 215 216 218 219 221 222 224 225 226 228 230 232 233 233 233 234 235 237 238 241 245
194 263 287 280 268 203 185 219 149 112 113 190 134 108 162 184 149 179 195 184 214 323 300 269 240 222 227 281 290 296 300 293 276 268 280 278 272 282 290 285 283 284 283 277 274 270 258 242 233 237 240 238 236 230 223 217 212 211 213 214 216 218 217 216 217 218 219 220 221 222 223 225 226 227 228 230 232 233 235 235 236 238 241 243 245 246
174 276 302 320 289 67 149 228 71 71 158 158 138 168 224 184 118 114 227 6 63 338 276 253 257 284 308 288 294 332 332 315 318 315 307 294 295 302 287 283 290 290 290 290 284 281 279 264 238 234 236 237 236 234 231 227 222 218 217 217 218 220 219 219 220 221 221 222 222 223 225 226 226 226 228 230 232 234 235 236 238 240 242 244 245 246
162 270 309 45 252 341 333 154 35 6 127 119 169 220 216 136 84 92 256 346 40 232 272 283 252 286 321 289 310 336 316 303 307 313 320 314 316 319 299 293 295 289 294 300 295 294 291 284 268 250 243 240 237 237 237 236 233 229 225 223 221 221 221 222 223 224 224 224 224 225 226 226 227 228 230 232 234 235 234 235 238 239 241 243 244 246
153 261 307 18 207 317 3 70 30 343 45 107 188 217 124 141 116 81 151 237 254 254 283 295 282 266 227 240 289 296 284 285 293 303 316 310 308 311 302 301 302 300 306 305 303 302 292 284 277 268 260 253 247 245 245 243 240 236 232 229 227 227 228 227 226 226 226 226 226 227 228 228 228 229 231 233 234 234 234 236 238 239 241 244 244 245
105 194 285 309 268 303 21 141 200 229 33 43 331 345 31 163 170 147 145 168 200 241 280 304 321 258 222 212 235 260 265 267 276 288 297 291 287 283 279 290 301 303 302 295 292 291 286 280 273 269 267 265 261 257 253 247 241 239 237 234 231 231 232 230 229 228 228 228 228 229 229 229 230 230 232 233 232 233 235 237 239 240 243 244 244 244
86 163 256 299 313 254 207 216 195 181 162 133 201 271 237 167 128 175 224 141 144 170 217 291 307 272 245 190 209 246 258 251 248 260 271 276 281 277 266 269 283 290 289 284 279 279 280 280 277 273 272 271 269 265 257 248 242 239 238 236 234 233 231 230 230 230 230 231 230 229 228 229 231 231 231 232 232 233 235 237 239 242 244 244 243 243
149 175 197 232 281 219 232 256 214 186 172 160 183 198 185 156 123 142 272 279 107 159 188 160 287 275 252 172 206 237 251 254 240 237 259 271 273 279 280 268 266 276 282 281 279 278 279 279 279 278 275 270 263 259 254 248 241 237 236 236 235 234 232 232 231 230 231 231 230 229 229 230 231 231 231 231 231 233 234 237 239 241 242 242 242 243
150 115 140 229 229 215 251 294 5 167 114 133 209 206 167 156 138 145 213 245 159 179 185 115 249 270 247 174 214 238 252 270 251 221 257 275 270 277 290 286 278 271 271 274 275 275 275 274 275 275 270 261 257 256 254 248 241 236 235 234 233 234 235 235 233 232 232 231 231 231 231 231 230 230 230 230 231 232 234 237 239 240 240 241 243 244
148 119 137 279 294 313 313 338 11 14 62 159 242 189 162 176 147 150 177 181 155 194 185 113 238 269 271 166 213 264 289 302 296 237 241 270 277 271 274 283 288 280 277 280 279 278 278 277 278 274 264 255 254 255 253 249 243 238 236 233 231 234 236 236 234 233 232 231 232 233 232 231 230 229 230 230 231 233 235 236 238 238 239 241 242 243
213 179 120 309 321 334 339 353 345 332 290 220 236 189 192 163 106 112 149 110 261 223 191 159 237 261 283 303 254 267 278 286 285 258 220 245 271 268 258 267 274 277 284 289 288 291 292 290 292 289 282 277 272 266 259 255 249 241 236 233 231 233 236 236 233 232 231 230 231 231 231 231 230 229 230 230 232 234 235 237 237 239 240 240 241 243
203 182 139 151 220 257 269 269 256 249 202 218 227 193 201 173 142 152 133 126 244 232 181 176 244 258 286 304 287 275 260 262 275 272 245 232 256 267 264 262 266 270 276 279 282 288 291 293 294 293 292 290 285 281 273 267 260 251 243 238 234 234 235 234 232 230 230 229 229 229 229 230 229 230 231 232 234 236 237 239 239 240 241 241 242 243
107 204 201 185 205 224 226 221 204 158 131 186 211 193 192 192 173 141 115 179 204 206 183 214 249 264 279 284 281 284 285 281 281 283 278 257 244 256 261 262 267 267 265 270 276 281 286 287 285 285 286 284 284 283 279 273 267 260 254 247 242 239 237 235 233 231 231 230 230 230 230 230 231 232 234 236 238 239 239 240 240 241 242 243 243 243
104 250 228 204 225 240 239 225 179 165 197 198 195 194 187 188 175 167 199 209 154 129 253 234 234 254 267 267 268 275 280 281 282 282 286 284 261 248 259 272 277 274 271 270 271 273 276 278 279 281 281 279 280 279 276 271 266 261 257 254 250 245 242 238 235 233 232 232 233 234 235 235 236 236 238 239 239 240 240 240 241 242 242 242 242 242
137 240 230 197 237 254 256 245 193 195 235 205 197 209 188 181 190 199 216 217 171 213 250 247 235 246 257 260 263 266 265 269 275 277 282 289 284 274 281 288 285 282 281 277 272 270 269 270 273 275 277 279 278 276 273 270 267 262 257 253 249 245 243 238 234 232 231 231 234 236 237 238 238 238 239 239 238 239 240 240 241 241 241 241 241 242
164 240 256 158 260 269 266 254 211 211 241 234 225 229 210 202 206 207 219 226 220 233 251 261 263 262 260 260 263 265 263 264 274 279 281 284 287 290 289 285 282 281 280 277 275 273 269 269 270 270 275 276 273 272 272 269 266 263 259 255 249 245 241 234 230 230 228 229 233 236 236 236 236 236 237 237 238 239 239 239 240 240 240 241 241 242
209 249 2 77 314 281 284 324 176 212 223 234 251 250 236 228 219 216 227 231 233 245 253 258 266 268 265 262 260 264 272 278 273 272 276 279 282 285 281 275 274 275 276 275 274 275 272 271 272 271 270 268 267 270 270 269 267 264 260 257 251 247 241 232 228 228 228 231 235 236 234 234 234 235 236 236 238 238 239 239 239 239 241 241 242 242
182 245 10 63 320 278 310 27 25 43 106 239 266 253 241 233 217 217 223 217 219 235 246 253 260 259 259 263 264 259 262 268 268 269 275 276 271 266 263 265 265 265 270 274 276 277 276 274 274 271 266 264 265 265 265 268 268 262 258 257 255 250 240 230 227 229 231 235 237 235 234 234 234 235 237 237 238 238 239 239 239 241 241 242 242 242
157 165 104 114 210 267 296 3 63 44 3 265 237 232 231 228 224 228 233 218 217 223 231 235 238 245 256 271 281 265 251 254 262 266 264 266 267 256 243 249 259 262 264 268 272 273 273 273 271 267 266 267 266 267 269 270 265 261 261 262 259 249 235 227 227 230 233 236 236 235 234 234 234 236 237 238 238 239 238 238 239 240 241 242 242 241
161 145 170 177 171 261 281 329 356 290 277 261 219 209 217 222 224 227 231 230 226 219 220 241 255 263 267 270 266 263 263 254 244 255 255 253 261 267 260 255 258 262 263 263 264 266 266 269 272 270 271 273 276 281 283 278 268 268 268 263 255 244 232 227 226 229 232 235 235 234 233 232 232 235 237 237 236 236 235 237 239 240 241 241 239 238
161 152 180 174 155 246 307 13 312 269 259 260 276 210 215 223 228 236 246 246 243 236 235 249 259 259 259 262 260 265 280 295 259 264 266 254 242 250 267 270 266 263 264 263 261 262 260 259 264 272 276 281 287 291 291 285 279 276 268 256 247 237 228 224 225 228 230 231 232 232 230 229 230 232 234 233 233 233 234 236 238 239 239 238 237 238
157 162 162 153 176 225 70 122 240 267 281 264 270 273 147 159 142 267 273 256 240 237 238 240 246 251 256 263 265 267 283 312 297 273 264 257 241 223 240 257 261 258 255 254 253 256 259 259 260 269 281 290 294 293 290 290 287 279 269 257 245 235 227 223 225 228 228 228 229 229 226 226 227 228 230 230 229 231 234 236 238 238 239 239 239 240
150 156 165 205 209 185 183 218 252 311 306 269 242 200 176 181 165 178 250 252 219 221 232 232 241 252 254 256 262 264 186 25 322 285 268 256 229 215 225 237 248 254 252 251 250 253 264 273 275 277 286 294 296 296 296 296 289 275 265 253 240 232 227 224 228 231 230 229 230 229 227 227 227 228 230 228 228 232 236 238 240 241 241 240 239 240
153 169 170 207 227 151 187 268 281 286 280 251 203 201 201 197 178 166 228 257 208 217 229 221 230 245 248 255 263 221 109 66 292 278 279 263 199 204 224 235 243 249 251 259 268 273 281 287 288 288 292 295 298 305 309 301 288 269 256 247 237 231 226 228 235 242 243 242 241 240 236 234 233 233 233 231 232 237 240 241 244 244 243 242 241 242
78 30 122 188 246 143 166 239 239 249 263 207 197 225 212 179 142 100 314 261 232 233 231 198 217 239 242 249 243 127 123 252 261 254 268 270 226 198 208 233 245 249 256 267 281 288 294 301 302 301 305 307 310 320 322 305 284 259 248 243 237 233 233 239 250 261 263 258 255 253 247 243 242 240 238 238 239 242 244 245 247 248 247 245 245 245
83 29 118 209 231 178 174 234 244 247 254 211 223 250 197 142 109 92 264 257 230 232 232 203 222 243 239 230 203 140 174 232 247 239 245 264 266 217 203 226 249 261 277 295 304 300 303 310 311 312 325 336 335 338 332 305 279 262 256 247 234 235 246 262 272 274 271 268 264 261 257 254 251 248 245 246 248 249 250 250 250 249 248 247 247 247
123 183 190 218 220 186 190 237 263 257 223 180 215 204 166 132 96 136 227 241 183 210 227 206 217 239 237 213 186 183 215 227 235 245 245 284 289 259 239 250 270 277 293 308 320 330 327 320 319 328 348 357 355 353 344 318 289 280 273 261 258 286 293 293 290 288 287 284 280 274 271 269 263 258 257 257 258 257 255 254 253 251 249 249 248 247
155 177 235 212 196 181 192 227 270 278 205 157 168 176 155 145 171 205 224 197 153 196 222 212 214 227 227 216 207 220 238 242 246 264 275 266 256 263 285 316 322 309 317 326 342 358 350 332 348 17 21 20 14 4 0 351 330 313 330 59 32 4 343 324 312 311 309 305 304 299 293 287 276 271 270 268 265 262 259 258 257 254 252 249 247 245
168 166 197 190 173 164 196 216 253 271 202 157 150 144 177 200 212 218 228 209 186 201 211 217 225 224 217 223 226 229 244 259 261 262 262 255 244 251 273 287 285 297 329 358 6 12 3 357 45 48 38 34 31 23 25 28 30 57 70 44 21 10 4 355 340 332 333 333 335 330 318 308 295 287 283 280 275 270 266 264 260 256 252 248 245 244
180 167 180 203 180 162 190 215 225 241 189 161 154 161 202 214 211 186 201 225 223 210 206 220 234 226 210 221 238 238 243 257 259 258 262 264 256 241 252 250 172 8 25 45 27 18 28 86 86 66 50 45 43 41 43 50 66 73 56 24 10 8 11 9 360 356 359 358 354 346 337 329 318 309 303 295 288 280 274 269 263 257 252 248 244 243
200 188 193 211 204 193 213 225 217 203 184 188 193 195 200 214 223 201 199 231 233 212 208 221 238 236 216 219 243 255 251 247 252 261 272 280 292 320 356 98 96 80 69 66 42 32 52 88 90 76 59 51 51 51 49 53 64 59 35 17 11 9 8 4 359 2 6 6 4 356 347 342 336 330 324 312 299 289 280 274 266 259 254 250 246 244
219 204 209 227 219 224 248 251 227 251 235 206 219 236 211 214 234 232 228 247 242 211 204 214 235 245 219 203 227 252 249 244 255 271 272 276 288 304 105 101 74 63 60 51 31 28 57 83 82 77 66 54 52 54 51 52 56 48 28 19 20 20 18 12 8 15 20 18 15 6 360 357 353 348 343 332 319 304 290 281 273 266 261 255 249 245
247 197 211 238 223 219 251 249 217 233 242 215 221 248 248 239 247 240 233 248 253 243 234 233 243 244 206 188 210 242 254 253 255 268 274 275 278 273 100 88 66 60 54 40 29 33 61 77 70 68 66 52 46 50 50 49 49 43 32 27 28 29 29 24 24 31 32 28 24 19 16 14 10 8 5 357 349 332 307 292 285 277 268 260 252 247
232 170 202 236 232 225 247 249 227 249 261 236 217 239 248 249 252 249 245 250 258 265 256 242 242 242 227 218 222 238 261 266 251 255 269 270 262 85 83 80 73 68 54 42 39 47 62 69 64 64 64 49 40 45 48 46 42 38 34 32 30 31 34 34 38 40 39 37 34 30 29 27 24 24 22 18 18 14 359 339 321 305 291 281 269 258
150 174 196 224 240 245 252 255 269 292 280 260 237 234 242 245 245 248 255 254 252 257 255 246 243 241 241 252 253 242 257 269 262 244 256 252 95 83 84 84 71 65 59 50 49 56 65 67 65 65 61 49 42 46 47 44 40 37 35 32 30 32 34 35 40 41 39 37 34 32 32 31 29 30 31 31 35 37 34 25 11 358 1 343 321 298
146 215 224 205 245 254 249 214 207 246 262 259 246 232 236 245 244 243 252 258 255 258 262 264 265 255 240 266 304 267 258 279 312 92 119 78 76 78 78 82 78 70 65 61 59 63 66 66 65 66 61 48 43 47 46 42 39 37 36 34 33 34 34 33 35 38 37 35 33 31 30 30 31 33 33 33 35 38 39 34 23 11 358 339 329 318
192 225 233 227 243 263 269 196 201 224 248 267 286 244 251 304 316 268 263 278 283 291 309 309 292 287 291 29 31 22 311 325 12 84 98 79 75 75 68 71 76 71 63 62 63 63 62 60 59 60 56 46 43 46 45 40 37 37 37 37 38 40 41 42 44 42 39 36 36 35 34 35 36 35 34 33 31 25 18 13 11 10 6 355 343 334